Binghamton, NY

9:27 AM EDT on July 23, 2019 (GMT -0400)
Binghamton Regional-Link

Weather History for KBGM - June, 2019

Change the Weather History Date:

Friday, June 14, 2019

  Actual Average Record
Temperature  
Mean Temperature 58 °F 64 °F  
Max Temperature 66 °F 74 °F 91 °F (1988)
Min Temperature 50 °F 55 °F 41 °F (1978)
Degree Days  
Heating Degree Days 7 3  
Month to date heating degree days 78 60  
Since 1 June heating degree days 78 60  
Since 1 July heating degree days 7155 7164  
Cooling Degree Days 0 2  
Month to date cooling degree days 2 25  
Year to date cooling degree days 9 48  
Since 1 June cooling degree days 2 25  
Growing Degree Days 8 (Base 50)    
Moisture  
Dew Point 46 °F    
Average Humidity 68    
Maximum Humidity 96    
Minimum Humidity 40    
Precipitation  
Precipitation T in 0.17 in 2.74 in (2015)
Month to date precipitation 1.90 2.01  
Year to date precipitation 18.62 16.76  
Snow  
Snow 0.00 in 0.00 in 0.00 in (2002)
Month to date snowfall 0.0 0.0  
Since 1 June snowfall 0.0 0.0  
Since 1 July snowfall 81.4 83.4  
Snow Depth 0.00 in    
Sea Level Pressure  
Sea Level Pressure 29.85 in    
Wind  
Wind Speed 12 mph (West)    
Max Wind Speed 25 mph    
Max Gust Speed 36 mph    
Visibility 10 miles    
Events Rain    
T = Trace of Precipitation, MM = Missing Value Source: NWS Daily Summary

Daily Weather History Graph

Daily Weather History Graph

Search for Another Location

Airport or City:

Astronomy

Jun. 14, 2019 Rise Set
Actual Time 5:27 AM EDT 8:41 PM EDT
Civil Twilight 4:52 AM EDT 9:16 PM EDT
Nautical Twilight 4:07 AM EDT 10:00 PM EDT
Astronomical Twilight 3:13 AM EDT 10:54 PM EDT
Moon 5:57 PM EDT (6/14) 3:47 AM EDT (6/14)
Length of Visible Light 16h 23m
Length of Day
15h 14m
Waxing Gibbous, 92% of the Moon is Illuminated
Jun 14
Waxing Gibbous
Jun 17
Full
Jun 25
Last Quarter
Jul 2
New
Jul 9
First Quarter

Hourly Weather History & Observations

Time (EDT) Temp. Dew Point Humidity Pressure Visibility Wind Dir Wind Speed Gust Speed Precip Events Conditions
12:53 AM 53.1 °F 51.1 °F 93% 29.73 in 10.0 mi SSW 6.9 mph - N/A   Overcast
1:53 AM 52.0 °F 50.0 °F 93% 29.72 in 10.0 mi SW 8.1 mph - N/A   Scattered Clouds
2:53 AM 51.1 °F 48.9 °F 92% 29.73 in 10.0 mi SW 8.1 mph - N/A   Mostly Cloudy
3:22 AM 50.0 °F 48.9 °F 96% 29.72 in 10.0 mi SW 8.1 mph - N/A   Scattered Clouds
3:53 AM 51.1 °F 48.9 °F 92% 29.72 in 10.0 mi SW 9.2 mph - N/A   Overcast
4:53 AM 51.1 °F 48.0 °F 89% 29.73 in 10.0 mi SW 8.1 mph - N/A   Overcast
5:49 AM 51.8 °F 48.2 °F 88% 29.75 in 10.0 mi SW 9.2 mph - N/A   Overcast
5:53 AM 51.1 °F 48.0 °F 89% 29.75 in 10.0 mi SW 10.4 mph - N/A   Overcast
6:53 AM 51.1 °F 48.9 °F 92% 29.77 in 9.0 mi WSW 11.5 mph - 0.00 in Rain Light Rain
7:53 AM 52.0 °F 48.9 °F 89% 29.80 in 10.0 mi WSW 10.4 mph 20.7 mph 0.00 in   Overcast
8:53 AM 52.0 °F 48.0 °F 86% 29.83 in 10.0 mi West 11.5 mph - N/A   Overcast
9:53 AM 53.1 °F 46.0 °F 77% 29.84 in 10.0 mi West 16.1 mph - N/A   Overcast
10:13 AM 55.0 °F 46.0 °F 72% 29.84 in 10.0 mi West 18.4 mph - N/A   Overcast
10:53 AM 55.0 °F 46.0 °F 72% 29.86 in 10.0 mi West 16.1 mph 25.3 mph N/A   Overcast
11:53 AM 60.1 °F 43.0 °F 53% 29.87 in 10.0 mi West 18.4 mph 26.5 mph N/A   Mostly Cloudy
12:53 PM 61.0 °F 43.0 °F 52% 29.88 in 10.0 mi West 17.3 mph 24.2 mph N/A   Overcast
1:01 PM 61.0 °F 43.0 °F 52% 29.88 in 10.0 mi West 18.4 mph 28.8 mph N/A   Overcast
1:53 PM 64.9 °F 39.9 °F 40% 29.88 in 10.0 mi WNW 20.7 mph 33.4 mph N/A   Partly Cloudy
2:53 PM 64.0 °F 42.1 °F 45% 29.91 in 10.0 mi WNW 16.1 mph 25.3 mph N/A   Overcast
3:23 PM 64.0 °F 41.0 °F 43% 29.92 in 10.0 mi WNW 16.1 mph 27.6 mph N/A   Mostly Cloudy
3:53 PM 66.0 °F 43.0 °F 43% 29.92 in 10.0 mi WNW 15.0 mph 29.9 mph N/A   Scattered Clouds
4:53 PM 63.0 °F 42.1 °F 46% 29.95 in 10.0 mi WNW 11.5 mph 26.5 mph N/A   Mostly Cloudy
6:53 PM 64.9 °F 42.1 °F 43% 29.98 in 10.0 mi WNW 13.8 mph 27.6 mph N/A   Partly Cloudy
7:53 PM 63.0 °F 43.0 °F 48% 30.00 in 10.0 mi West 9.2 mph - N/A   Clear
8:53 PM 59.0 °F 44.1 °F 58% 30.01 in 10.0 mi West 6.9 mph - N/A   Clear
9:53 PM 57.9 °F 44.1 °F 60% 30.04 in 10.0 mi WNW 6.9 mph - N/A   Clear